Time,TemperatureF,DewpointF,PressureIn,WindDirection,WindDirectionDegrees,WindSpeedMPH,WindSpeedGustMPH,Humidity,HourlyPrecipIn,Conditions,Clouds,dailyrainin,SoftwareType,DateUTC
2013-08-31 01:40:00,71.0,-99.9,-100.00,NNW,335,0.0,1.0,-999,-99.99,,,-99.99,,2013-08-31 07:40:00,
2013-08-31 02:12:00,70.0,-99.9,-100.00,NNE,17,0.0,1.0,-999,-99.99,,,-99.99,,2013-08-31 08:12:00,
2013-08-31 02:22:00,71.0,-99.9,-100.00,NNW,335,0.0,1.0,-999,-99.99,,,-99.99,,2013-08-31 08:22:00,
2013-08-31 02:32:00,71.0,-99.9,-100.00,NNW,335,0.0,1.0,-999,-99.99,,,-99.99,,2013-08-31 08:32:00,
2013-08-31 03:00:00,71.0,-99.9,-100.00,NNW,329,0.0,2.0,-999,-99.99,,,-99.99,,2013-08-31 09:00:00,
2013-08-31 03:53:00,71.0,-99.9,-100.00,NNW,329,0.0,2.0,-999,-99.99,,,-99.99,,2013-08-31 09:53:00,
2013-08-31 04:10:00,70.0,-99.9,-100.00,NW,324,0.0,2.0,-999,-99.99,,,-99.99,,2013-08-31 10:10:00,
2013-08-31 04:53:00,70.0,-99.9,-100.00,NW,324,0.0,2.0,-999,-99.99,,,-99.99,,2013-08-31 10:53:00,
2013-08-31 05:03:00,70.0,-99.9,-100.00,NW,324,0.0,2.0,-999,-99.99,,,-99.99,,2013-08-31 11:03:00,
2013-08-31 05:22:00,69.0,-99.9,-100.00,SSE,153,0.0,2.0,-999,-99.99,,,-99.99,,2013-08-31 11:22:00,
2013-08-31 05:42:00,69.0,-99.9,-100.00,ESE,113,0.0,2.0,-999,-99.99,,,-99.99,,2013-08-31 11:42:00,
2013-08-31 05:52:00,69.0,-99.9,-100.00,ESE,113,0.0,2.0,-999,-99.99,,,-99.99,,2013-08-31 11:52:00,
2013-08-31 06:52:00,65.0,-99.9,-100.00,WNW,290,0.0,1.0,-999,-99.99,,,-99.99,,2013-08-31 12:52:00,
2013-08-31 07:02:00,65.0,-99.9,-100.00,WNW,290,0.0,1.0,-999,-99.99,,,-99.99,,2013-08-31 13:02:00,
2013-08-31 07:52:00,67.0,-99.9,-100.00,West,276,1.0,2.0,-999,-99.99,,,-99.99,,2013-08-31 13:52:00,
2013-08-31 08:12:00,72.0,-99.9,-100.00,West,264,0.0,1.0,-999,-99.99,,,-99.99,,2013-08-31 14:12:00,
2013-08-31 08:22:00,72.0,-99.9,-100.00,West,264,0.0,1.0,-999,-99.99,,,-99.99,,2013-08-31 14:22:00,
2013-08-31 17:12:00,100.0,-99.9,-100.00,North,356,1.0,3.0,-999,-99.99,,,-99.99,,2013-08-31 23:12:00,
2013-08-31 17:23:00,103.0,-99.9,-100.00,North,356,1.0,3.0,-999,-99.99,,,-99.99,,2013-08-31 23:23:00,
2013-08-31 17:34:00,103.0,-99.9,-100.00,North,356,1.0,3.0,-999,-99.99,,,-99.99,,2013-08-31 23:34:00,
2013-08-31 18:52:00,91.0,-99.9,-100.00,ENE,65,1.0,3.0,-999,-99.99,,,-99.99,,2013-09-01 00:52:00,
2013-08-31 19:02:00,91.0,-99.9,-100.00,ENE,65,1.0,3.0,-999,-99.99,,,-99.99,,2013-09-01 01:02:00,
2013-08-31 19:12:00,91.0,-99.9,-100.00,ENE,65,1.0,3.0,-999,-99.99,,,-99.99,,2013-09-01 01:12:00,